JAT900 SCAR-SLLP

Flight info

Callsign JAT900
Flight time 0h 45m
Altitude 23000
Route VAGUR1 VAGUR UM664 PAZ
Aircraft AT72/M-SOV/C

Departure

Time 2026-04-21 16:25
Airport Chacalluta International Airport (SCAR)

Arrival

Time 2026-04-21 17:10
Airport El Alto International Airport (SLLP)
Time Latitude Longitude Altitude Speed Heading
2026-04-21 16:17 -18.34973 -70.33655 170 ft 0 kts 124°
2026-04-21 16:18 -18.34972 -70.33656 170 ft 1 kts 124°
2026-04-21 16:18 -18.34969 -70.33668 170 ft 2 kts 88°
2026-04-21 16:18 -18.34974 -70.33686 170 ft 3 kts 58°
2026-04-21 16:18 -18.34982 -70.33695 170 ft 0 kts 35°
2026-04-21 16:20 -18.34980 -70.33694 170 ft 1 kts 22°
2026-04-21 16:20 -18.34970 -70.33694 170 ft 3 kts 358°
2026-04-21 16:20 -18.34925 -70.33702 170 ft 10 kts 346°
2026-04-21 16:21 -18.34846 -70.33684 170 ft 10 kts 21°
2026-04-21 16:21 -18.34795 -70.33674 170 ft 7 kts 17°
2026-04-21 16:21 -18.34729 -70.33651 170 ft 13 kts 19°
2026-04-21 16:21 -18.34643 -70.33619 170 ft 12 kts 19°
2026-04-21 16:22 -18.34591 -70.33600 170 ft 11 kts 19°
2026-04-21 16:22 -18.34488 -70.33562 170 ft 13 kts 22°
2026-04-21 16:22 -18.34390 -70.33520 170 ft 15 kts 19°
2026-04-21 16:22 -18.34315 -70.33495 170 ft 13 kts 20°
2026-04-21 16:23 -18.34218 -70.33457 170 ft 14 kts 20°
2026-04-21 16:23 -18.34127 -70.33420 170 ft 15 kts 19°
2026-04-21 16:23 -18.34037 -70.33399 170 ft 11 kts 347°
2026-04-21 16:23 -18.33984 -70.33421 170 ft 11 kts 327°
2026-04-21 16:24 -18.33947 -70.33480 170 ft 11 kts 295°
2026-04-21 16:24 -18.33947 -70.33541 170 ft 7 kts 217°
2026-04-21 16:24 -18.34092 -70.33598 170 ft 69 kts 199°
2026-04-21 16:24 -18.34832 -70.33865 175 ft 148 kts 199°
2026-04-21 16:25 -18.35831 -70.34244 738 ft 156 kts 201°
2026-04-21 16:25 -18.36872 -70.34632 1505 ft 158 kts 199°
2026-04-21 16:25 -18.37889 -70.35063 2183 ft 159 kts 205°
2026-04-21 16:25 -18.38825 -70.35729 2837 ft 165 kts 217°
2026-04-21 16:26 -18.39782 -70.36521 3294 ft 182 kts 218°
2026-04-21 16:26 -18.40803 -70.37380 3775 ft 193 kts 218°
2026-04-21 16:26 -18.41869 -70.38272 4208 ft 203 kts 219°
2026-04-21 16:26 -18.43003 -70.39207 4643 ft 210 kts 219°
2026-04-21 16:27 -18.44178 -70.40152 5075 ft 216 kts 219°
2026-04-21 16:27 -18.45396 -70.41108 5508 ft 220 kts 219°
2026-04-21 16:27 -18.46530 -70.42206 5934 ft 218 kts 239°
2026-04-21 16:27 -18.46960 -70.43693 6368 ft 214 kts 271°
2026-04-21 16:28 -18.46530 -70.45167 6798 ft 216 kts 301°
2026-04-21 16:28 -18.45357 -70.46174 7226 ft 224 kts 333°
2026-04-21 16:28 -18.43788 -70.46367 7652 ft 235 kts
2026-04-21 16:28 -18.42297 -70.45663 8073 ft 244 kts 35°
2026-04-21 16:29 -18.41223 -70.44235 8518 ft 249 kts 57°
2026-04-21 16:29 -18.40451 -70.42606 8943 ft 251 kts 64°
2026-04-21 16:29 -18.39895 -70.40871 9369 ft 252 kts 73°
2026-04-21 16:29 -18.39471 -70.39066 9797 ft 253 kts 76°
2026-04-21 16:30 -18.39086 -70.37256 10223 ft 253 kts 76°
2026-04-21 16:30 -18.38710 -70.35442 10649 ft 253 kts 76°
2026-04-21 16:30 -18.38339 -70.33642 11071 ft 252 kts 76°
2026-04-21 16:30 -18.37968 -70.31837 11495 ft 252 kts 76°
2026-04-21 16:31 -18.37549 -70.30059 11913 ft 250 kts 66°
2026-04-21 16:31 -18.36640 -70.28546 12343 ft 244 kts 46°
2026-04-21 16:31 -18.35496 -70.27240 12768 ft 241 kts 41°
2026-04-21 16:31 -18.34292 -70.25988 13196 ft 240 kts 40°
2026-04-21 16:32 -18.33093 -70.24773 13620 ft 238 kts 39°
2026-04-21 16:32 -18.31918 -70.23588 14036 ft 236 kts 39°
2026-04-21 16:32 -18.30730 -70.22391 14461 ft 234 kts 39°
2026-04-21 16:32 -18.29552 -70.21202 14884 ft 232 kts 39°
2026-04-21 16:33 -18.28409 -70.20042 15300 ft 230 kts 39°
2026-04-21 16:33 -18.27244 -70.18858 15728 ft 228 kts 39°
2026-04-21 16:33 -18.26116 -70.17711 16146 ft 226 kts 39°
2026-04-21 16:33 -18.24998 -70.16570 16566 ft 223 kts 39°
2026-04-21 16:34 -18.23887 -70.15436 16987 ft 221 kts 39°
2026-04-21 16:34 -18.22784 -70.14309 17310 ft 224 kts 39°
2026-04-21 16:34 -18.21653 -70.13152 17572 ft 229 kts 39°
2026-04-21 16:34 -18.20488 -70.11965 17830 ft 233 kts 39°
2026-04-21 16:35 -18.19321 -70.10779 18082 ft 237 kts 39°
2026-04-21 16:35 -18.18126 -70.09567 18336 ft 240 kts 39°
2026-04-21 16:35 -18.16911 -70.08340 18590 ft 242 kts 39°
2026-04-21 16:35 -18.15703 -70.07121 18840 ft 244 kts 39°
2026-04-21 16:36 -18.14470 -70.05880 19092 ft 246 kts 39°
2026-04-21 16:36 -18.13224 -70.04626 19345 ft 247 kts 39°
2026-04-21 16:36 -18.11968 -70.03365 19598 ft 248 kts 39°
2026-04-21 16:36 -18.10717 -70.02110 19848 ft 249 kts 39°
2026-04-21 16:37 -18.09462 -70.00853 20072 ft 251 kts 39°
2026-04-21 16:37 -18.08189 -69.99581 20226 ft 256 kts 39°
2026-04-21 16:37 -18.06859 -69.98264 20388 ft 269 kts 39°
2026-04-21 16:37 -18.05457 -69.96906 20484 ft 275 kts 38°
2026-04-21 16:38 -18.04038 -69.95541 20603 ft 277 kts 39°
2026-04-21 16:38 -18.02630 -69.94167 20728 ft 279 kts 39°
2026-04-21 16:38 -18.01206 -69.92771 20854 ft 280 kts 39°
2026-04-21 16:38 -17.99767 -69.91361 20981 ft 281 kts 39°
2026-04-21 16:39 -17.98348 -69.89971 21105 ft 281 kts 39°
2026-04-21 16:39 -17.96912 -69.88564 21231 ft 282 kts 39°
2026-04-21 16:39 -17.95484 -69.87167 21355 ft 282 kts 39°
2026-04-21 16:39 -17.94046 -69.85761 21480 ft 281 kts 39°
2026-04-21 16:40 -17.92608 -69.84354 21604 ft 277 kts 39°
2026-04-21 16:40 -17.91223 -69.82997 21725 ft 274 kts 39°
2026-04-21 16:40 -17.89854 -69.81613 21847 ft 272 kts 41°
2026-04-21 16:40 -17.88591 -69.80138 21971 ft 271 kts 47°
2026-04-21 16:41 -17.87428 -69.78592 22094 ft 269 kts 49°
2026-04-21 16:41 -17.86305 -69.77033 22217 ft 267 kts 50°
2026-04-21 16:41 -17.85200 -69.75481 22339 ft 265 kts 50°
2026-04-21 16:41 -17.84098 -69.73925 22463 ft 263 kts 50°
2026-04-21 16:42 -17.83008 -69.72385 22586 ft 261 kts 50°
2026-04-21 16:42 -17.81926 -69.70853 22710 ft 259 kts 50°
2026-04-21 16:42 -17.80862 -69.69348 22832 ft 258 kts 50°
2026-04-21 16:42 -17.79806 -69.67853 22952 ft 257 kts 50°
2026-04-21 16:43 -17.78738 -69.66343 23000 ft 259 kts 50°
2026-04-21 16:43 -17.77658 -69.64819 23005 ft 262 kts 50°
2026-04-21 16:43 -17.76556 -69.63267 23004 ft 266 kts 50°
2026-04-21 16:43 -17.75443 -69.61703 23003 ft 268 kts 50°
2026-04-21 16:44 -17.74313 -69.60119 23002 ft 271 kts 50°
2026-04-21 16:44 -17.73194 -69.58552 23002 ft 273 kts 50°
2026-04-21 16:44 -17.72036 -69.56934 23001 ft 275 kts 50°
2026-04-21 16:44 -17.70897 -69.55345 23001 ft 276 kts 50°
2026-04-21 16:45 -17.69741 -69.53733 23001 ft 278 kts 50°
2026-04-21 16:45 -17.68575 -69.52110 23001 ft 279 kts 50°
2026-04-21 16:45 -17.67400 -69.50475 23001 ft 280 kts 50°
2026-04-21 16:45 -17.66218 -69.48834 23001 ft 281 kts 50°
2026-04-21 16:46 -17.65034 -69.47191 23001 ft 282 kts 50°
2026-04-21 16:46 -17.63850 -69.45550 23000 ft 282 kts 50°
2026-04-21 16:46 -17.62663 -69.43906 23000 ft 283 kts 50°
2026-04-21 16:46 -17.61474 -69.42260 23000 ft 283 kts 50°
2026-04-21 16:47 -17.60281 -69.40610 23000 ft 284 kts 50°
2026-04-21 16:47 -17.59086 -69.38959 23000 ft 284 kts 50°
2026-04-21 16:47 -17.57897 -69.37317 23000 ft 284 kts 50°
2026-04-21 16:47 -17.56704 -69.35672 23000 ft 284 kts 49°
2026-04-21 16:48 -17.55502 -69.34015 23000 ft 285 kts 49°
2026-04-21 16:48 -17.54309 -69.32372 23000 ft 285 kts 49°
2026-04-21 16:48 -17.53109 -69.30720 23000 ft 285 kts 49°
2026-04-21 16:48 -17.51890 -69.29044 23000 ft 285 kts 49°
2026-04-21 16:49 -17.50700 -69.27408 23000 ft 285 kts 49°
2026-04-21 16:49 -17.49497 -69.25756 23000 ft 285 kts 49°
2026-04-21 16:49 -17.48283 -69.24091 23000 ft 286 kts 49°
2026-04-21 16:49 -17.47094 -69.22459 23000 ft 286 kts 49°
2026-04-21 16:50 -17.45872 -69.20784 23000 ft 286 kts 49°
2026-04-21 16:50 -17.44664 -69.19130 23000 ft 286 kts 49°
2026-04-21 16:50 -17.43458 -69.17479 23000 ft 286 kts 49°
2026-04-21 16:50 -17.42255 -69.15835 23000 ft 286 kts 49°
2026-04-21 16:51 -17.41045 -69.14181 23000 ft 286 kts 49°
2026-04-21 16:51 -17.39830 -69.12521 23000 ft 286 kts 49°
2026-04-21 16:51 -17.38624 -69.10876 23000 ft 286 kts 49°
2026-04-21 16:51 -17.37413 -69.09224 23000 ft 286 kts 49°
2026-04-21 16:52 -17.36201 -69.07572 23000 ft 286 kts 49°
2026-04-21 16:52 -17.34980 -69.05908 23000 ft 286 kts 49°
2026-04-21 16:52 -17.34185 -69.04827 23000 ft 286 kts 49°
2026-04-21 16:52 -17.32563 -69.02629 23000 ft 286 kts 48°
2026-04-21 16:53 -17.31287 -69.01018 23000 ft 285 kts 46°
2026-04-21 16:53 -17.29990 -68.99446 23000 ft 285 kts 45°
2026-04-21 16:53 -17.28676 -68.97875 23000 ft 285 kts 45°
2026-04-21 16:53 -17.27380 -68.96332 23000 ft 285 kts 45°
2026-04-21 16:54 -17.26067 -68.94773 23000 ft 285 kts 45°
2026-04-21 16:54 -17.24756 -68.93218 23000 ft 285 kts 45°
2026-04-21 16:54 -17.23442 -68.91662 23000 ft 285 kts 45°
2026-04-21 16:54 -17.22127 -68.90104 23000 ft 285 kts 45°
2026-04-21 16:55 -17.20817 -68.88553 23000 ft 285 kts 45°
2026-04-21 16:55 -17.19503 -68.86999 23000 ft 285 kts 45°
2026-04-21 16:55 -17.18192 -68.85449 23000 ft 285 kts 45°
2026-04-21 16:55 -17.16874 -68.83892 23000 ft 285 kts 45°
2026-04-21 16:56 -17.15986 -68.82843 23000 ft 285 kts 45°
2026-04-21 16:56 -17.14668 -68.81288 23000 ft 285 kts 45°
2026-04-21 16:56 -17.12919 -68.79225 23000 ft 285 kts 45°
2026-04-21 16:56 -17.12050 -68.78201 23000 ft 285 kts 45°
2026-04-21 16:57 -17.10704 -68.76682 23000 ft 284 kts 42°
2026-04-21 16:57 -17.09318 -68.75207 23000 ft 284 kts 41°
2026-04-21 16:57 -17.07899 -68.73730 23000 ft 284 kts 41°
2026-04-21 16:57 -17.06513 -68.72296 23000 ft 284 kts 41°
2026-04-21 16:58 -17.05097 -68.70836 23000 ft 284 kts 41°
2026-04-21 16:58 -17.03686 -68.69383 23000 ft 284 kts 41°
2026-04-21 16:58 -17.02284 -68.67940 23000 ft 284 kts 41°
2026-04-21 16:58 -17.00888 -68.66503 22999 ft 280 kts 41°
2026-04-21 16:59 -16.99533 -68.65104 22994 ft 267 kts 41°
2026-04-21 16:59 -16.98239 -68.63759 22897 ft 259 kts 41°
2026-04-21 16:59 -16.96965 -68.62433 22704 ft 255 kts 41°
2026-04-21 16:59 -16.95713 -68.61146 22484 ft 252 kts 37°
2026-04-21 17:00 -16.94358 -68.60020 22261 ft 248 kts 31°
2026-04-21 17:00 -16.92941 -68.58982 22035 ft 247 kts 29°
2026-04-21 17:00 -16.92006 -68.58320 21886 ft 246 kts 29°
2026-04-21 17:00 -16.90121 -68.56999 21587 ft 245 kts 28°
2026-04-21 17:01 -16.88701 -68.56009 21361 ft 244 kts 28°
2026-04-21 17:01 -16.87290 -68.55026 21136 ft 244 kts 28°
2026-04-21 17:01 -16.85871 -68.54038 20910 ft 244 kts 28°
2026-04-21 17:01 -16.84470 -68.53063 20686 ft 243 kts 28°
2026-04-21 17:02 -16.83063 -68.52085 20462 ft 243 kts 28°
2026-04-21 17:02 -16.81637 -68.51093 20235 ft 244 kts 28°
2026-04-21 17:02 -16.80242 -68.50124 20013 ft 244 kts 28°
2026-04-21 17:02 -16.78819 -68.49136 19787 ft 244 kts 28°
2026-04-21 17:03 -16.77403 -68.48154 19563 ft 244 kts 28°
2026-04-21 17:03 -16.75997 -68.47179 19340 ft 245 kts 28°
2026-04-21 17:03 -16.74574 -68.46194 19115 ft 245 kts 28°
2026-04-21 17:03 -16.73136 -68.45198 18888 ft 245 kts 28°
2026-04-21 17:04 -16.71710 -68.44212 18663 ft 245 kts 28°
2026-04-21 17:04 -16.70301 -68.43239 18441 ft 246 kts 28°
2026-04-21 17:04 -16.68860 -68.42244 18214 ft 246 kts 28°
2026-04-21 17:04 -16.67437 -68.41262 17991 ft 247 kts 28°
2026-04-21 17:05 -16.66001 -68.40272 17766 ft 247 kts 28°
2026-04-21 17:05 -16.64569 -68.39286 17542 ft 247 kts 28°
2026-04-21 17:05 -16.63135 -68.38299 17318 ft 248 kts 28°
2026-04-21 17:05 -16.61694 -68.37309 17094 ft 248 kts 28°
2026-04-21 17:06 -16.60247 -68.36314 16869 ft 248 kts 28°
2026-04-21 17:06 -16.58801 -68.35326 16645 ft 249 kts 28°
2026-04-21 17:06 -16.57355 -68.34340 16420 ft 249 kts 28°
2026-04-21 17:06 -16.55880 -68.33365 16200 ft 247 kts 31°
2026-04-21 17:07 -16.54403 -68.32480 15973 ft 238 kts 29°
2026-04-21 17:07 -16.53022 -68.31686 15738 ft 220 kts 28°
2026-04-21 17:07 -16.51755 -68.30944 15621 ft 198 kts 33°
2026-04-21 17:07 -16.50951 -68.29855 15294 ft 186 kts 71°
2026-04-21 17:08 -16.50797 -68.28573 15092 ft 172 kts 88°
2026-04-21 17:08 -16.50882 -68.27391 14999 ft 156 kts 99°
2026-04-21 17:08 -16.51030 -68.26324 14800 ft 148 kts 97°
2026-04-21 17:08 -16.51138 -68.25237 14470 ft 152 kts 95°
2026-04-21 17:09 -16.51219 -68.23002 13869 ft 154 kts 91°
2026-04-21 17:09 -16.51235 -68.21904 13637 ft 149 kts 91°
2026-04-21 17:09 -16.51276 -68.20861 13451 ft 141 kts 92°
2026-04-21 17:10 -16.51323 -68.19876 13332 ft 129 kts 91°
2026-04-21 17:10 -16.51346 -68.19069 13318 ft 84 kts 92°
2026-04-21 17:10 -16.51361 -68.18659 13318 ft 32 kts 86°
2026-04-21 17:10 -16.51347 -68.18539 13318 ft 6 kts 100°
2026-04-21 17:11 -16.51354 -68.18503 13318 ft 4 kts 97°
2026-04-21 17:11 -16.51355 -68.18486 13318 ft 1 kts 94°
2026-04-21 17:11 -16.51355 -68.18485 13318 ft 0 kts 94°
2026-04-21 17:12 -16.51355 -68.18483 13318 ft 1 kts 94°
2026-04-21 17:12 -16.51357 -68.18458 13318 ft 7 kts 94°
2026-04-21 17:12 -16.51356 -68.18416 13318 ft 6 kts 81°
2026-04-21 17:13 -16.51350 -68.18377 13318 ft 5 kts 79°
2026-04-21 17:13 -16.51342 -68.18341 13317 ft 5 kts 76°
2026-04-21 17:13 -16.51331 -68.18301 13317 ft 7 kts 70°
2026-04-21 17:13 -16.51308 -68.18249 13317 ft 8 kts 61°
2026-04-21 17:14 -16.51282 -68.18202 13317 ft 8 kts 58°
2026-04-21 17:14 -16.51250 -68.18155 13317 ft 8 kts 48°
2026-04-21 17:14 -16.51208 -68.18109 13317 ft 7 kts 45°
2026-04-21 17:14 -16.51169 -68.18070 13317 ft 11 kts 45°
2026-04-21 17:15 -16.51107 -68.18005 13317 ft 13 kts 44°
2026-04-21 17:15 -16.51046 -68.17943 13317 ft 13 kts 44°
2026-04-21 17:15 -16.51000 -68.17891 13317 ft 8 kts 66°
2026-04-21 17:15 -16.50996 -68.17841 13317 ft 7 kts 88°
2026-04-21 17:16 -16.50985 -68.17807 13317 ft 4 kts 43°
2026-04-21 17:16 -16.50971 -68.17785 13317 ft 6 kts 82°
2026-04-21 17:16 -16.50962 -68.17751 13317 ft 4 kts 53°
2026-04-21 17:16 -16.50950 -68.17743 13317 ft 3 kts 31°
2026-04-21 17:17 -16.50942 -68.17737 13317 ft 0 kts 30°